Location: Lugrin
(46.4033°N, 6.6674°E)
Time: 08:47:50
(UTC+00:00)

N. Korean satellite - Pass Details

Date: 01 December 2020
Orbit: 453 x 502 km, 97.2° (Epoch: 16 January)

Event Time Altitude Azimuth Distance (km) Brightness Sun altitude
Rises 05:41:45 0° 4° (N) 2,561 10.1 -12.5°
Reaches altitude 10° 05:43:55 10° 356° (N) 1,684 9.1 -12.1°
Maximum altitude 05:47:15 35° 289° (WNW) 808 7.1 -11.6°
Drops below altitude 10° 05:50:36 10° 222° (SW) 1,693 9.1 -11.0°
Sets 05:52:47 0° 214° (SSW) 2,577 10.1 -10.7°
